McCook, NE

6:56 PM CST on December 12, 2017 (GMT -0600)
McCook Municipal

Weather History for KMCK - December, 2012

Change the Weather History Date:

Thursday, December 6, 2012

  Actual Average Record
Temperature  
Mean Temperature 35 °F 29 °F  
Max Temperature 50 °F 43 °F 77 °F (1939)
Min Temperature 20 °F 16 °F -21 °F (1909)
Degree Days  
Heating Degree Days 27    
Moisture  
Dew Point 19 °F    
Average Humidity 46    
Maximum Humidity 71    
Minimum Humidity 24    
Precipitation  
Precipitation 0.00 in 0.03 in 0.10 in (1972)
Month to date precipitation 0.00 0.14  
Year to date precipitation 8.13 22.03  
Sea Level Pressure  
Sea Level Pressure 29.96 in    
Wind  
Wind Speed 10 mph (North)    
Max Wind Speed 26 mph    
Max Gust Speed 36 mph    
Visibility 10 miles    
Events      
T = Trace of Precipitation, MM = Missing Value Source: NWS Daily Summary

Daily Weather History Graph

Daily Weather History Graph

Search for Another Location

Airport or City:

Trip Planner

Search our weather history database for the weather conditions in past years. The results will help you decide how hot, cold, wet, or windy it might be!

Date:

Astronomy

Dec. 06, 2012 Rise Set
Actual Time 7:50 AM CST 5:16 PM CST
Civil Twilight 7:20 AM CST 5:46 PM CST
Nautical Twilight 6:46 AM CST 6:20 PM CST
Astronomical Twilight 6:13 AM CST 6:53 PM CST
Moon 12:08 AM CST (12/6) 12:44 PM CST (12/6)
Length of Visible Light 10h 26m
Length of Day
9h 25m
Waning Gibbous, 49% of the Moon is Illuminated
Dec 6
Waning Gibbous
Dec 13
New
Dec 19
First Quarter
Dec 28
Full
Jan 4
Last Quarter

Hourly Weather History & Observations

Time (CST) Temp. Windchill Dew Point Humidity Pressure Visibility Wind Dir Wind Speed Gust Speed Precip Events Conditions
12:53 AM 43.0 °F 38.8 °F 24.1 °F 47% 29.81 in 10.0 mi South 6.9 mph - N/A   Clear
1:53 AM 41.0 °F 37.1 °F 24.1 °F 51% 29.81 in 10.0 mi WSW 5.8 mph - N/A   Clear
2:53 AM 39.0 °F 36.8 °F 24.1 °F 55% 29.82 in 10.0 mi West 3.5 mph - N/A   Clear
3:53 AM 34.0 °F 28.8 °F 23.0 °F 64% 29.84 in 10.0 mi West 5.8 mph - N/A   Clear
4:53 AM 36.0 °F 33.3 °F 25.0 °F 64% 29.85 in 10.0 mi WSW 3.5 mph - N/A   Clear
5:53 AM 45.0 °F 38.5 °F 30.0 °F 56% 29.86 in 10.0 mi NNW 13.8 mph - N/A   Partly Cloudy
6:53 AM 48.9 °F - 32.0 °F 52% 29.88 in 10.0 mi NNE 26.5 mph 33.4 mph N/A   Clear
7:53 AM 46.9 °F - 26.1 °F 44% 29.92 in 10.0 mi NNE 23.0 mph 35.7 mph N/A   Clear
8:53 AM 46.0 °F 38.3 °F 21.0 °F 37% 29.98 in 10.0 mi NNE 20.7 mph 29.9 mph N/A   Clear
9:53 AM 46.0 °F 39.3 °F 21.0 °F 37% 30.01 in 10.0 mi NNE 16.1 mph 21.9 mph N/A   Clear
10:53 AM 46.9 °F - 17.1 °F 30% 30.03 in 10.0 mi NNE 13.8 mph - N/A   Partly Cloudy
11:53 AM 46.0 °F 38.8 °F 14.0 °F 28% 30.03 in 10.0 mi North 18.4 mph - N/A   Partly Cloudy
12:53 PM 46.9 °F - 14.0 °F 27% 30.01 in 10.0 mi North 17.3 mph - N/A   Clear
1:53 PM 48.0 °F - 12.0 °F 24% 30.00 in 10.0 mi North 15.0 mph - N/A   Clear
2:53 PM 48.0 °F - 16.0 °F 28% 30.00 in 10.0 mi North 16.1 mph - N/A   Clear
3:53 PM 46.9 °F - 16.0 °F 29% 30.00 in 10.0 mi NNE 16.1 mph - N/A   Clear
4:53 PM 45.0 °F 40.6 °F 16.0 °F 31% 30.01 in 10.0 mi NNE 8.1 mph - N/A   Clear
5:53 PM 37.9 °F 34.4 °F 15.1 °F 39% 30.01 in 10.0 mi NNE 4.6 mph - N/A   Clear
6:53 PM 32.0 °F 25.6 °F 15.1 °F 50% 30.02 in 10.0 mi NNE 6.9 mph - N/A   Partly Cloudy
7:53 PM 32.0 °F 27.5 °F 16.0 °F 52% 30.03 in 10.0 mi North 4.6 mph - N/A   Partly Cloudy
8:53 PM 28.9 °F 23.9 °F 16.0 °F 58% 30.04 in 10.0 mi North 4.6 mph - N/A   Clear
9:53 PM 28.0 °F 24.2 °F 17.1 °F 63% 30.05 in 10.0 mi North 3.5 mph - N/A   Clear
10:53 PM 28.9 °F - 17.1 °F 61% 30.06 in 10.0 mi Calm Calm - N/A   Clear
11:53 PM 19.9 °F 13.4 °F 12.0 °F 71% 30.06 in 10.0 mi SSW 4.6 mph - N/A   Mostly Cloudy